Weather History for Greenville, ME

Change the Weather History Date:

Thursday, January 24, 2013

  Actual Average (KMLT) Record (KMLT)
Temperature  
Mean Temperature -6 °F 13 °F  
Max Temperature 1 °F 23 °F 50 °F (1992)
Min Temperature -14 °F 3 °F -27 °F (1905)
Degree Days  
Heating Degree Days 72 52  
Month to date heating degree days 1222  
Since 1 July heating degree days 4387  
Cooling Degree Days 0 0  
Month to date cooling degree days 0  
Year to date cooling degree days 0  
Moisture  
Dew Point -18 °F    
Average Humidity 61    
Maximum Humidity 72    
Minimum Humidity 46    
Precipitation  
Precipitation 0.00 in 0.08 in 1.31 in (1992)
Month to date precipitation 2.34  
Year to date precipitation 2.34  
Sea Level Pressure  
Sea Level Pressure 29.90 in    
Wind  
Wind Speed 12 mph (NW)    
Max Wind Speed 20 mph    
Max Gust Speed 36 mph    
T = Trace of Precipitation, MM = Missing Value Source: NWS Daily Summary

Daily Weather History Graph

Daily Weather History Graph

Search for Another Location

Airport:

Trip Planner

Search our weather history database for the weather conditions in past years. The results will help you decide how hot, cold, wet, or windy it might be!

Date:

Astronomy

Jan. 24, 2013 Rise Set
Actual Time 7:07 AM EST 4:34 PM EST
Civil Twilight 6:35 AM EST 5:06 PM EST
Nautical Twilight 5:59 AM EST 5:42 PM EST
Astronomical Twilight 5:24 AM EST 6:17 PM EST
Moon 2:31 PM EST (1/24) 5:04 AM EST (1/24)
Length of Visible Light 10h 31m
Length of Day
9h 26m
Waxing Gibbous, 94% of the Moon is Illuminated
Jan 24
Waxing Gibbous
Jan 26
Full
Feb 3
Last Quarter
Feb 10
New
Feb 17
First Quarter

Hourly Weather History & Observations

Time (EST) Temp. Windchill Dew Point Humidity Pressure Visibility Wind Dir Wind Speed Gust Speed Precip Events Conditions
12:56 AM -13.0 °F -33.4 °F -22.0 °F 64% 29.89 in - NW 11.5 mph 23.0 mph N/A   Unknown
1:56 AM -13.0 °F -33.4 °F -20.9 °F 68% 29.90 in - NW 11.5 mph 25.3 mph N/A   Unknown
2:56 AM -11.9 °F -31.0 °F -20.9 °F 64% 29.88 in - NW 10.4 mph 24.2 mph N/A   Unknown
3:56 AM -11.9 °F -29.9 °F -20.9 °F 64% 29.88 in - WNW 9.2 mph 20.7 mph N/A   Unknown
4:56 AM -13.0 °F -32.4 °F -22.0 °F 64% 29.88 in - NW 10.4 mph 23.0 mph N/A   Unknown
5:56 AM -13.0 °F -35.2 °F -22.0 °F 64% 29.88 in - NW 13.8 mph 25.3 mph N/A   Unknown
6:56 AM -14.1 °F -32.6 °F -22.0 °F 68% 29.88 in - WNW 9.2 mph 26.5 mph N/A   Unknown
7:56 AM -11.9 °F -37.4 °F -22.0 °F 61% 29.88 in - NW 19.6 mph 29.9 mph N/A   Unknown
8:56 AM -9.0 °F -27.4 °F -20.9 °F 56% 29.90 in - NW 10.4 mph 24.2 mph N/A   Unknown
9:56 AM -8.0 °F -26.1 °F -20.0 °F 56% 29.90 in - WNW 10.4 mph 24.2 mph N/A   Unknown
10:56 AM -5.1 °F -23.5 °F -20.0 °F 49% 29.87 in - WNW 11.5 mph 29.9 mph N/A   Unknown
11:56 AM -2.9 °F -16.5 °F -18.9 °F 46% 29.84 in - Variable 6.9 mph 20.7 mph N/A   Unknown
12:56 PM -0.9 °F -21.2 °F -16.1 °F 49% 29.81 in - NW 16.1 mph 27.6 mph N/A   Unknown
1:56 PM 1.0 °F -14.9 °F -14.1 °F 49% 29.82 in - WNW 10.4 mph 21.9 mph N/A   Unknown
2:56 PM -0.9 °F -16.4 °F -15.0 °F 52% 29.83 in - WNW 9.2 mph 25.3 mph N/A   Unknown
3:56 PM -2.9 °F -19.8 °F -15.0 °F 56% 29.86 in - NW 10.4 mph 19.6 mph N/A   Unknown
4:56 PM -5.1 °F -23.5 °F -15.0 °F 62% 29.89 in - NW 11.5 mph 29.9 mph N/A   Unknown
5:56 PM -7.1 °F -29.1 °F -16.1 °F 65% 29.93 in - NW 16.1 mph 33.4 mph N/A   Unknown
6:56 PM -7.1 °F -26.8 °F -16.1 °F 65% 29.94 in - WNW 12.7 mph 29.9 mph N/A   Unknown
7:56 PM -7.1 °F -26.8 °F -16.1 °F 65% 29.95 in - NW 12.7 mph 31.1 mph N/A   Unknown
8:56 PM -6.0 °F -25.5 °F -15.0 °F 65% 29.98 in - NW 12.7 mph 33.4 mph N/A   Unknown
9:56 PM -6.0 °F -28.4 °F -14.1 °F 68% 29.96 in - NW 17.3 mph 32.2 mph N/A   Unknown
10:56 PM -6.0 °F -27.0 °F -13.0 °F 72% 29.97 in - NW 15.0 mph 31.1 mph N/A   Unknown
11:56 PM -6.0 °F -29.6 °F -13.0 °F 72% 29.99 in - NW 19.6 mph 35.7 mph N/A   Unknown